This is the latest recevied weather packets stored in our database for station/object AB0TJ. If no packets are shown the sender has not sent any weather packets the latest 10 day(s).
| Time | Temp. | Humidity | Pressure | Rain* | Wind** | Luminosity | Snow |
|---|---|---|---|---|---|---|---|
| 1777391324 | 12.78° C | 54% | 1018.8 hPa | 0 mm | - | 476 W/m² | - |
| 1777390831 | 12.22° C | 57% | 1018.7 hPa | 0 mm | - | 305 W/m² | - |
| 1777390295 | 11.67° C | 59% | 1018.7 hPa | 0 mm | - | 414 W/m² | - |
| 1777389791 | 11.11° C | 61% | 1018.7 hPa | 0 mm | - | 386 W/m² | - |
| 1777389204 | 10° C | 66% | 1017 hPa | 0 mm | - | 387 W/m² | - |
| 1777388662 | 9.44° C | 67% | 1016.9 hPa | 0 mm | - | 96 W/m² | - |
| 1777388064 | 8.89° C | 69% | 1016.8 hPa | 0 mm | - | 120 W/m² | - |
| 1777387546 | 8.89° C | 71% | 1018 hPa | 0 mm | - | 250 W/m² | - |
| 1777386964 | 8.33° C | 71% | 1016.8 hPa | 0 mm | - | 105 W/m² | - |
| 1777386384 | 7.78° C | 70% | 1016.8 hPa | 0 mm | - | 70 W/m² | - |
| 1777385904 | 7.78° C | 77% | 1016.7 hPa | 0 mm | - | 185 W/m² | - |
| 1777385349 | 7.22° C | 78% | 1016.6 hPa | 0 mm | - | 89 W/m² | - |
| 1777384829 | 7.22° C | 78% | 1017.2 hPa | 0 mm | - | 37 W/m² | - |
| 1777384314 | 6.67° C | 80% | 1016.4 hPa | 0 mm | - | 32 W/m² | - |
| 1777383799 | 6.11° C | 82% | 1016.2 hPa | 0 mm | - | 32 W/m² | - |
| 1777383244 | 6.11° C | 84% | 1016 hPa | 0 mm | - | 47 W/m² | - |
| 1777382654 | 5.56° C | 86% | 1017.4 hPa | 0 mm | - | 53 W/m² | - |
| 1777382059 | 5° C | 86% | 1017.3 hPa | 0 mm | - | 49 W/m² | - |
| 1777381579 | 5° C | 86% | 1017.1 hPa | 0 mm | - | 26 W/m² | - |
| 1777380979 | 4.44° C | 86% | 1017 hPa | 0 mm | - | 23 W/m² | - |
| 1777380463 | 4.44° C | 85% | 1016.3 hPa | 0 mm | - | 14 W/m² | - |
| 1777379954 | 4.44° C | 85% | 1016.4 hPa | 0 mm | - | 9 W/m² | - |
| 1777379424 | 4.44° C | 84% | 1016.5 hPa | 0 mm | - | 5 W/m² | - |
| 1777378854 | 4.44° C | 83% | 1016.2 hPa | 0 mm | - | 2 W/m² | - |
| 1777378364 | 4.44° C | 83% | 1016 hPa | 0 mm | - | 1 W/m² | - |
* Rain latest hour (hover to see other rain measurements)
** Current wind speed in m/s (hover to see current wind gust speed)